Year,Month,Day,Hour,Minute,Value (Times are PST for temperature in C)
2012,07,08,00,00,16.90
2012,07,08,00,01,16.80
2012,07,08,00,02,16.80
2012,07,08,00,03,16.80
2012,07,08,00,04,16.80
2012,07,08,00,05,16.80
2012,07,08,00,06,16.80
2012,07,08,00,07,16.80
2012,07,08,00,08,16.80
2012,07,08,00,09,16.80
2012,07,08,00,10,16.80
2012,07,08,00,11,16.80
2012,07,08,00,12,16.80
2012,07,08,00,13,16.80
2012,07,08,00,14,16.80
2012,07,08,00,15,16.80
2012,07,08,00,16,16.80
2012,07,08,00,17,16.80
2012,07,08,00,18,16.80
2012,07,08,00,19,16.80
2012,07,08,00,20,16.80
2012,07,08,00,21,16.80
2012,07,08,00,22,16.80
2012,07,08,00,23,16.80
2012,07,08,00,24,16.80
2012,07,08,00,25,16.80
2012,07,08,00,26,16.90
2012,07,08,00,27,16.90
2012,07,08,00,28,16.90
2012,07,08,00,29,16.90
2012,07,08,00,30,16.90
2012,07,08,00,31,16.90
2012,07,08,00,32,16.90
2012,07,08,00,33,16.90
2012,07,08,00,34,16.80
2012,07,08,00,35,16.80
2012,07,08,00,36,16.80
2012,07,08,00,37,16.80
2012,07,08,00,38,16.70
2012,07,08,00,39,16.70
2012,07,08,00,40,16.70
2012,07,08,00,41,16.70
2012,07,08,00,42,16.70
2012,07,08,00,43,16.60
2012,07,08,00,44,16.60
2012,07,08,00,45,16.70
2012,07,08,00,46,16.70
2012,07,08,00,47,16.70
2012,07,08,00,48,16.70
2012,07,08,00,49,16.70
2012,07,08,00,50,16.80
2012,07,08,00,51,16.80
2012,07,08,00,52,16.80
2012,07,08,00,53,16.80
2012,07,08,00,54,16.80
2012,07,08,00,55,16.80
2012,07,08,00,56,16.80
2012,07,08,00,57,16.80
2012,07,08,00,58,16.80
2012,07,08,00,59,16.80
2012,07,08,01,00,16.80
2012,07,08,01,01,16.80
2012,07,08,01,02,16.80
2012,07,08,01,03,16.80
2012,07,08,01,04,16.80
2012,07,08,01,05,16.80
2012,07,08,01,06,16.80
2012,07,08,01,07,16.70
2012,07,08,01,08,16.70
2012,07,08,01,09,16.70
2012,07,08,01,10,16.60
2012,07,08,01,11,16.60
2012,07,08,01,12,16.60
2012,07,08,01,13,16.60
2012,07,08,01,14,16.60
2012,07,08,01,15,16.60
2012,07,08,01,16,16.70
2012,07,08,01,17,16.70
2012,07,08,01,18,16.70
2012,07,08,01,19,16.70
2012,07,08,01,20,16.70
2012,07,08,01,21,16.70
2012,07,08,01,22,16.70
2012,07,08,01,23,16.70
2012,07,08,01,24,16.70
2012,07,08,01,25,16.70
2012,07,08,01,26,16.70
2012,07,08,01,27,16.70
2012,07,08,01,28,16.70
2012,07,08,01,29,16.80
2012,07,08,01,30,16.80
2012,07,08,01,31,16.80
2012,07,08,01,32,16.80
2012,07,08,01,33,16.80
2012,07,08,01,34,16.80
2012,07,08,01,35,16.80
2012,07,08,01,36,16.90
2012,07,08,01,37,16.90
2012,07,08,01,38,16.90
2012,07,08,01,39,16.90
2012,07,08,01,40,16.90
2012,07,08,01,41,16.90
2012,07,08,01,42,16.90
2012,07,08,01,43,16.90
2012,07,08,01,44,16.90
2012,07,08,01,45,16.90
2012,07,08,01,46,16.90
2012,07,08,01,47,16.90
2012,07,08,01,48,16.90
2012,07,08,01,49,16.90
2012,07,08,01,50,16.90
2012,07,08,01,51,16.90
2012,07,08,01,52,16.90
2012,07,08,01,53,16.90
2012,07,08,01,54,16.90
2012,07,08,01,55,16.90
2012,07,08,01,56,16.90
2012,07,08,01,57,16.90
2012,07,08,01,58,16.90
2012,07,08,01,59,16.90
2012,07,08,02,00,16.90
2012,07,08,02,01,16.90
2012,07,08,02,02,16.90
2012,07,08,02,03,16.90
2012,07,08,02,04,16.90
2012,07,08,02,05,16.90
2012,07,08,02,06,16.90
2012,07,08,02,07,16.90
2012,07,08,02,08,16.90
2012,07,08,02,09,16.90
2012,07,08,02,10,16.90
2012,07,08,02,11,16.90
2012,07,08,02,12,16.80
2012,07,08,02,13,16.80
2012,07,08,02,14,16.80
2012,07,08,02,15,16.70
2012,07,08,02,16,16.60
2012,07,08,02,17,16.50
2012,07,08,02,18,16.40
2012,07,08,02,19,16.30
2012,07,08,02,20,16.20
2012,07,08,02,21,16.10
2012,07,08,02,22,16.00
2012,07,08,02,23,16.00
2012,07,08,02,24,15.90
2012,07,08,02,25,15.80
2012,07,08,02,26,15.70
2012,07,08,02,27,15.70
2012,07,08,02,28,15.60
2012,07,08,02,29,15.50
2012,07,08,02,30,15.40
2012,07,08,02,31,15.40
2012,07,08,02,32,15.30
2012,07,08,02,33,15.20
2012,07,08,02,34,15.20
2012,07,08,02,35,15.10
2012,07,08,02,36,15.00
2012,07,08,02,37,15.00
2012,07,08,02,38,15.00
2012,07,08,02,39,15.00
2012,07,08,02,40,15.00
2012,07,08,02,41,14.90
2012,07,08,02,42,14.80
2012,07,08,02,43,14.80
2012,07,08,02,44,14.80
2012,07,08,02,45,14.70
2012,07,08,02,46,14.70
2012,07,08,02,47,14.70
2012,07,08,02,48,14.60
2012,07,08,02,49,14.60
2012,07,08,02,50,14.60
2012,07,08,02,51,14.60
2012,07,08,02,52,14.50
2012,07,08,02,53,14.50
2012,07,08,02,54,14.40
2012,07,08,02,55,14.40
2012,07,08,02,56,14.40
2012,07,08,02,57,14.40
2012,07,08,02,58,14.40
2012,07,08,02,59,14.40
2012,07,08,03,00,14.40
2012,07,08,03,01,14.40
2012,07,08,03,02,14.30
2012,07,08,03,03,14.30
2012,07,08,03,04,14.30
2012,07,08,03,05,14.30
2012,07,08,03,06,14.30
2012,07,08,03,07,14.30
2012,07,08,03,08,14.30
2012,07,08,03,09,14.30
2012,07,08,03,10,14.20
2012,07,08,03,11,14.20
2012,07,08,03,12,14.20
2012,07,08,03,13,14.20
2012,07,08,03,14,14.20
2012,07,08,03,15,14.20
2012,07,08,03,16,14.30
2012,07,08,03,17,14.30
2012,07,08,03,18,14.30
2012,07,08,03,19,14.30
2012,07,08,03,20,14.30
2012,07,08,03,21,14.30
2012,07,08,03,22,14.30
2012,07,08,03,23,14.40
2012,07,08,03,24,14.40
2012,07,08,03,25,14.50
2012,07,08,03,26,14.50
2012,07,08,03,27,14.60
2012,07,08,03,28,14.70
2012,07,08,03,29,14.70
2012,07,08,03,30,14.80
2012,07,08,03,31,14.90
2012,07,08,03,32,15.00
2012,07,08,03,33,15.00
2012,07,08,03,34,15.00
2012,07,08,03,35,15.00
2012,07,08,03,36,15.10
2012,07,08,03,37,15.20
2012,07,08,03,38,15.20
2012,07,08,03,39,15.30
2012,07,08,03,40,15.30
2012,07,08,03,41,15.40
2012,07,08,03,42,15.40
2012,07,08,03,43,15.50
2012,07,08,03,44,15.50
2012,07,08,03,45,15.40
2012,07,08,03,46,15.40
2012,07,08,03,47,15.40
2012,07,08,03,48,15.30
2012,07,08,03,49,15.30
2012,07,08,03,50,15.20
2012,07,08,03,51,15.20
2012,07,08,03,52,15.20
2012,07,08,03,53,15.20
2012,07,08,03,54,15.20
2012,07,08,03,55,15.20
2012,07,08,03,56,15.20
2012,07,08,03,57,15.30
2012,07,08,03,58,15.30
2012,07,08,03,59,15.30
2012,07,08,04,00,15.30
2012,07,08,04,01,15.30
2012,07,08,04,02,15.30
2012,07,08,04,03,15.20
2012,07,08,04,04,15.20
2012,07,08,04,05,15.20
2012,07,08,04,06,15.20
2012,07,08,04,07,15.10
2012,07,08,04,08,15.10
2012,07,08,04,09,15.00
2012,07,08,04,10,15.00
2012,07,08,04,11,15.00
2012,07,08,04,12,15.00
2012,07,08,04,13,15.00
2012,07,08,04,14,15.00
2012,07,08,04,15,14.90
2012,07,08,04,16,14.90
2012,07,08,04,17,14.80
2012,07,08,04,18,14.70
2012,07,08,04,19,14.70
2012,07,08,04,20,14.70
2012,07,08,04,21,14.60
2012,07,08,04,22,14.60
2012,07,08,04,23,14.60
2012,07,08,04,24,14.50
2012,07,08,04,25,14.50
2012,07,08,04,26,14.40
2012,07,08,04,27,14.40
2012,07,08,04,28,14.40
2012,07,08,04,29,14.30
2012,07,08,04,30,14.30
2012,07,08,04,31,14.30
2012,07,08,04,32,14.30
2012,07,08,04,33,14.30
2012,07,08,04,34,14.20
2012,07,08,04,35,14.20
2012,07,08,04,36,14.20
2012,07,08,04,37,14.20
2012,07,08,04,38,14.10
2012,07,08,04,39,14.10
2012,07,08,04,40,14.10
2012,07,08,04,41,14.10
2012,07,08,04,42,14.10
2012,07,08,04,43,14.10
2012,07,08,04,44,14.10
2012,07,08,04,45,14.10
2012,07,08,04,46,14.00
2012,07,08,04,47,14.00
2012,07,08,04,48,14.00
2012,07,08,04,49,13.90
2012,07,08,04,50,13.90
2012,07,08,04,51,13.90
2012,07,08,04,52,13.80
2012,07,08,04,53,13.80
2012,07,08,04,54,13.80
2012,07,08,04,55,13.80
2012,07,08,04,56,13.70
2012,07,08,04,57,13.70
2012,07,08,04,58,13.70
2012,07,08,04,59,13.70
2012,07,08,05,00,13.60
2012,07,08,05,01,13.60
2012,07,08,05,02,13.60
2012,07,08,05,03,13.50
2012,07,08,05,04,13.50
2012,07,08,05,05,13.50
2012,07,08,05,06,13.50
2012,07,08,05,07,13.40
2012,07,08,05,08,13.40
2012,07,08,05,09,13.40
2012,07,08,05,10,13.40
2012,07,08,05,11,13.40
2012,07,08,05,12,13.40
2012,07,08,05,13,13.40
2012,07,08,05,14,13.40
2012,07,08,05,15,13.50
2012,07,08,05,16,13.50
2012,07,08,05,17,13.50
2012,07,08,05,18,13.50
2012,07,08,05,19,13.50
2012,07,08,05,20,13.50
2012,07,08,05,21,13.50
2012,07,08,05,22,13.50
2012,07,08,05,23,13.60
2012,07,08,05,24,13.50
2012,07,08,05,25,13.50
2012,07,08,05,26,13.50
2012,07,08,05,27,13.50
2012,07,08,05,28,13.50
2012,07,08,05,29,13.50
2012,07,08,05,30,13.50
2012,07,08,05,31,13.50
2012,07,08,05,32,13.50
2012,07,08,05,33,13.50
2012,07,08,05,34,13.60
2012,07,08,05,35,13.60
2012,07,08,05,36,13.50
2012,07,08,05,37,13.50
2012,07,08,05,38,13.50
2012,07,08,05,39,13.50
2012,07,08,05,40,13.50
2012,07,08,05,41,13.50
2012,07,08,05,42,13.50
2012,07,08,05,43,13.50
2012,07,08,05,44,13.50
2012,07,08,05,45,13.50
2012,07,08,05,46,13.50
2012,07,08,05,47,13.50
2012,07,08,05,48,13.50
2012,07,08,05,49,13.50
2012,07,08,05,50,13.60
2012,07,08,05,51,13.50
2012,07,08,05,52,13.50
2012,07,08,05,53,13.50
2012,07,08,05,54,13.60
2012,07,08,05,55,13.60
2012,07,08,05,56,13.50
2012,07,08,05,57,13.60
2012,07,08,05,58,13.50
2012,07,08,05,59,13.50
2012,07,08,06,00,13.50
2012,07,08,06,01,13.50
2012,07,08,06,02,13.50
2012,07,08,06,03,13.60
2012,07,08,06,04,13.60
2012,07,08,06,05,13.60
2012,07,08,06,06,13.60
2012,07,08,06,07,13.70
2012,07,08,06,08,13.70
2012,07,08,06,09,13.70
2012,07,08,06,10,13.70
2012,07,08,06,11,13.70
2012,07,08,06,12,13.70
2012,07,08,06,13,13.70
2012,07,08,06,14,13.70
2012,07,08,06,15,13.70
2012,07,08,06,16,13.70
2012,07,08,06,17,13.70
2012,07,08,06,18,13.70
2012,07,08,06,19,13.70
2012,07,08,06,20,13.70
2012,07,08,06,21,13.80
2012,07,08,06,22,13.80
2012,07,08,06,23,13.80
2012,07,08,06,24,13.80
2012,07,08,06,25,13.90
2012,07,08,06,26,13.90
2012,07,08,06,27,13.90
2012,07,08,06,28,14.00
2012,07,08,06,29,14.00
2012,07,08,06,30,14.10
2012,07,08,06,31,14.10
2012,07,08,06,32,14.20
2012,07,08,06,33,14.20
2012,07,08,06,34,14.30
2012,07,08,06,35,14.40
2012,07,08,06,36,14.50
2012,07,08,06,37,14.60
2012,07,08,06,38,14.70
2012,07,08,06,39,14.70
2012,07,08,06,40,14.80
2012,07,08,06,41,14.90
2012,07,08,06,42,15.00
2012,07,08,06,43,15.00
2012,07,08,06,44,15.00
2012,07,08,06,45,15.10
2012,07,08,06,46,15.20
2012,07,08,06,47,15.30
2012,07,08,06,48,15.40
2012,07,08,06,49,15.50
2012,07,08,06,50,15.60
2012,07,08,06,51,15.70
2012,07,08,06,52,15.80
2012,07,08,06,53,16.00
2012,07,08,06,54,16.10
2012,07,08,06,55,16.20
2012,07,08,06,56,16.30
2012,07,08,06,57,16.50
2012,07,08,06,58,16.60
2012,07,08,06,59,16.70
2012,07,08,07,00,16.80
2012,07,08,07,01,16.90
2012,07,08,07,02,17.00
2012,07,08,07,03,17.10
2012,07,08,07,04,17.20
2012,07,08,07,05,17.30
2012,07,08,07,06,17.30
2012,07,08,07,07,17.40
2012,07,08,07,08,17.50
2012,07,08,07,09,17.50
2012,07,08,07,10,17.60
2012,07,08,07,11,17.60
2012,07,08,07,12,17.70
2012,07,08,07,13,17.70
2012,07,08,07,14,17.80
2012,07,08,07,15,17.80
2012,07,08,07,16,17.80
2012,07,08,07,17,17.90
2012,07,08,07,18,18.00
2012,07,08,07,19,18.00
2012,07,08,07,20,18.10
2012,07,08,07,21,18.10
2012,07,08,07,22,18.20
2012,07,08,07,23,18.20
2012,07,08,07,24,18.20
2012,07,08,07,25,18.30
2012,07,08,07,26,18.30
2012,07,08,07,27,18.30
2012,07,08,07,28,18.30
2012,07,08,07,29,18.40
2012,07,08,07,30,18.40
2012,07,08,07,31,18.40
2012,07,08,07,32,18.50
2012,07,08,07,33,18.50
2012,07,08,07,34,18.50
2012,07,08,07,35,18.50
2012,07,08,07,36,18.50
2012,07,08,07,37,18.50
2012,07,08,07,38,18.50
2012,07,08,07,39,18.50
2012,07,08,07,40,18.50
2012,07,08,07,41,18.50
2012,07,08,07,42,18.50
2012,07,08,07,43,18.50
2012,07,08,07,44,18.40
2012,07,08,07,45,18.40
2012,07,08,07,46,18.40
2012,07,08,07,47,18.40
2012,07,08,07,48,18.50
2012,07,08,07,49,18.50
2012,07,08,07,50,18.60
2012,07,08,07,51,18.60
2012,07,08,07,52,18.60
2012,07,08,07,53,18.60
2012,07,08,07,54,18.60
2012,07,08,07,55,18.60
2012,07,08,07,56,18.60
2012,07,08,07,57,18.60
2012,07,08,07,58,18.60
2012,07,08,07,59,18.70
2012,07,08,08,00,18.70
2012,07,08,08,01,18.70
2012,07,08,08,02,18.70
2012,07,08,08,03,18.80
2012,07,08,08,04,18.80
2012,07,08,08,05,18.80
2012,07,08,08,06,18.80
2012,07,08,08,07,18.80
2012,07,08,08,08,18.90
2012,07,08,08,09,18.90
2012,07,08,08,10,18.90
2012,07,08,08,11,18.90
2012,07,08,08,12,19.00
2012,07,08,08,13,19.00
2012,07,08,08,14,19.00
2012,07,08,08,15,19.10
2012,07,08,08,16,19.10
2012,07,08,08,17,19.10
2012,07,08,08,18,19.10
2012,07,08,08,19,19.10
2012,07,08,08,20,19.10
2012,07,08,08,21,19.10
2012,07,08,08,22,19.10
2012,07,08,08,23,19.10
2012,07,08,08,24,19.10
2012,07,08,08,25,19.20
2012,07,08,08,26,19.20
2012,07,08,08,27,19.30
2012,07,08,08,28,19.30
2012,07,08,08,29,19.20
2012,07,08,08,30,19.20
2012,07,08,08,31,19.20
2012,07,08,08,32,19.20
2012,07,08,08,33,19.30
2012,07,08,08,34,19.30
2012,07,08,08,35,19.40
2012,07,08,08,36,19.50
2012,07,08,08,37,19.60
2012,07,08,08,38,19.70
2012,07,08,08,39,19.70
2012,07,08,08,40,19.70
2012,07,08,08,41,19.70
2012,07,08,08,42,19.70
2012,07,08,08,43,19.80
2012,07,08,08,44,19.70
2012,07,08,08,45,19.70
2012,07,08,08,46,19.70
2012,07,08,08,47,19.70
2012,07,08,08,48,19.70
2012,07,08,08,49,19.70
2012,07,08,08,50,19.70
2012,07,08,08,51,19.80
2012,07,08,08,52,19.90
2012,07,08,08,53,20.00
2012,07,08,08,54,20.00
2012,07,08,08,55,20.00
2012,07,08,08,56,20.00
2012,07,08,08,57,20.00
2012,07,08,08,58,20.00
2012,07,08,08,59,19.90
2012,07,08,09,00,19.90
2012,07,08,09,01,19.90
2012,07,08,09,02,19.90
2012,07,08,09,03,19.90
2012,07,08,09,04,19.80
2012,07,08,09,05,19.80
2012,07,08,09,06,19.80
2012,07,08,09,07,19.70
2012,07,08,09,08,19.70
2012,07,08,09,09,19.60
2012,07,08,09,10,19.60
2012,07,08,09,11,19.50
2012,07,08,09,12,19.50
2012,07,08,09,13,19.50
2012,07,08,09,14,19.50
2012,07,08,09,15,19.40
2012,07,08,09,16,19.40
2012,07,08,09,17,19.30
2012,07,08,09,18,19.30
2012,07,08,09,19,19.30
2012,07,08,09,20,19.30
2012,07,08,09,21,19.30
2012,07,08,09,22,19.30
2012,07,08,09,23,19.30
2012,07,08,09,24,19.40
2012,07,08,09,25,19.40
2012,07,08,09,26,19.40
2012,07,08,09,27,19.40
2012,07,08,09,28,19.50
2012,07,08,09,29,19.50
2012,07,08,09,30,19.50
2012,07,08,09,31,19.60
2012,07,08,09,32,19.60
2012,07,08,09,33,19.60
2012,07,08,09,34,19.60
2012,07,08,09,35,19.70
2012,07,08,09,36,19.70
2012,07,08,09,37,19.80
2012,07,08,09,38,19.80
2012,07,08,09,39,19.80
2012,07,08,09,40,19.90
2012,07,08,09,41,19.90
2012,07,08,09,42,20.00
2012,07,08,09,43,20.10
2012,07,08,09,44,20.10
2012,07,08,09,45,20.10
2012,07,08,09,46,20.10
2012,07,08,09,47,20.10
2012,07,08,09,48,20.10
2012,07,08,09,49,20.10
2012,07,08,09,50,20.10
2012,07,08,09,51,20.00
2012,07,08,09,52,19.90
2012,07,08,09,53,19.90
2012,07,08,09,54,19.90
2012,07,08,09,55,19.90
2012,07,08,09,56,19.90
2012,07,08,09,57,20.00
2012,07,08,09,58,20.10
2012,07,08,09,59,20.10
2012,07,08,10,00,20.10
2012,07,08,10,01,20.10
2012,07,08,10,02,20.20
2012,07,08,10,03,20.10
2012,07,08,10,04,20.10
2012,07,08,10,05,20.00
2012,07,08,10,06,20.00
2012,07,08,10,07,20.00
2012,07,08,10,08,20.00
2012,07,08,10,09,19.90
2012,07,08,10,10,19.90
2012,07,08,10,11,19.80
2012,07,08,10,12,19.80
2012,07,08,10,13,19.80
2012,07,08,10,14,19.80
2012,07,08,10,15,19.80
2012,07,08,10,16,19.80
2012,07,08,10,17,19.70
2012,07,08,10,18,19.70
2012,07,08,10,19,19.70
2012,07,08,10,20,19.70
2012,07,08,10,21,19.70
2012,07,08,10,22,19.80
2012,07,08,10,23,19.80
2012,07,08,10,24,19.90
2012,07,08,10,25,20.00
2012,07,08,10,26,20.10
2012,07,08,10,27,20.20
2012,07,08,10,28,20.30
2012,07,08,10,29,20.30
2012,07,08,10,30,20.30
2012,07,08,10,31,20.30
2012,07,08,10,32,20.30
2012,07,08,10,33,20.30
2012,07,08,10,34,20.30
2012,07,08,10,35,20.20
2012,07,08,10,36,20.10
2012,07,08,10,37,20.10
2012,07,08,10,38,20.10
2012,07,08,10,39,20.10
2012,07,08,10,40,20.20
2012,07,08,10,41,20.20
2012,07,08,10,42,20.30
2012,07,08,10,43,20.40
2012,07,08,10,44,20.50
2012,07,08,10,45,20.50
2012,07,08,10,46,20.60
2012,07,08,10,47,20.70
2012,07,08,10,48,20.70
2012,07,08,10,49,20.70
2012,07,08,10,50,20.70
2012,07,08,10,51,20.70
2012,07,08,10,52,20.70
2012,07,08,10,53,20.60
2012,07,08,10,54,20.60
2012,07,08,10,55,20.60
2012,07,08,10,56,20.60
2012,07,08,10,57,20.70
2012,07,08,10,58,20.70
2012,07,08,10,59,20.70
2012,07,08,11,00,20.70
2012,07,08,11,01,20.70
2012,07,08,11,02,20.70
2012,07,08,11,03,20.70
2012,07,08,11,04,20.70
2012,07,08,11,05,20.70
2012,07,08,11,06,20.60
2012,07,08,11,07,20.60
2012,07,08,11,08,20.60
2012,07,08,11,09,20.50
2012,07,08,11,10,20.50
2012,07,08,11,11,20.40
2012,07,08,11,12,20.40
2012,07,08,11,13,20.50
2012,07,08,11,14,20.50
2012,07,08,11,15,20.60
2012,07,08,11,16,20.60
2012,07,08,11,17,20.70
2012,07,08,11,18,20.70
2012,07,08,11,19,20.70
2012,07,08,11,20,20.80
2012,07,08,11,21,20.80
2012,07,08,11,22,20.90
2012,07,08,11,23,20.90
2012,07,08,11,24,21.00
2012,07,08,11,25,21.00
2012,07,08,11,26,21.00
2012,07,08,11,27,21.10
2012,07,08,11,28,21.10
2012,07,08,11,29,21.10
2012,07,08,11,30,21.10
2012,07,08,11,31,21.00
2012,07,08,11,32,20.90
2012,07,08,11,33,20.90
2012,07,08,11,34,20.90
2012,07,08,11,35,20.90
2012,07,08,11,36,20.80
2012,07,08,11,37,20.80
2012,07,08,11,38,20.80
2012,07,08,11,39,20.80
2012,07,08,11,40,20.80
2012,07,08,11,41,20.80
2012,07,08,11,42,20.80
2012,07,08,11,43,20.80
2012,07,08,11,44,20.80
2012,07,08,11,45,20.90
2012,07,08,11,46,20.90
2012,07,08,11,47,20.80
2012,07,08,11,48,20.80
2012,07,08,11,49,20.90
2012,07,08,11,50,20.90
2012,07,08,11,51,20.90
2012,07,08,11,52,20.90
2012,07,08,11,53,20.90
2012,07,08,11,54,20.90
2012,07,08,11,55,20.80
2012,07,08,11,56,20.80
2012,07,08,11,57,20.80
2012,07,08,11,58,20.70
2012,07,08,11,59,20.70
2012,07,08,12,00,20.70
2012,07,08,12,01,20.70
2012,07,08,12,02,20.80
2012,07,08,12,03,20.80
2012,07,08,12,04,20.80
2012,07,08,12,05,20.70
2012,07,08,12,06,20.70
2012,07,08,12,07,20.70
2012,07,08,12,08,20.70
2012,07,08,12,09,20.80
2012,07,08,12,10,20.80
2012,07,08,12,11,20.90
2012,07,08,12,12,20.90
2012,07,08,12,13,21.00
2012,07,08,12,14,21.00
2012,07,08,12,15,21.00
2012,07,08,12,16,21.00
2012,07,08,12,17,21.00
2012,07,08,12,18,20.90
2012,07,08,12,19,20.90
2012,07,08,12,20,20.90
2012,07,08,12,21,21.00
2012,07,08,12,22,21.00
2012,07,08,12,23,21.10
2012,07,08,12,24,21.10
2012,07,08,12,25,21.10
2012,07,08,12,26,21.20
2012,07,08,12,27,21.20
2012,07,08,12,28,21.20
2012,07,08,12,29,21.30
2012,07,08,12,30,21.30
2012,07,08,12,31,21.40
2012,07,08,12,32,21.40
2012,07,08,12,33,21.50
2012,07,08,12,34,21.60
2012,07,08,12,35,21.70
2012,07,08,12,36,21.70
2012,07,08,12,37,21.70
2012,07,08,12,38,21.70
2012,07,08,12,39,21.70
2012,07,08,12,40,21.70
2012,07,08,12,41,21.80
2012,07,08,12,42,21.80
2012,07,08,12,43,21.80
2012,07,08,12,44,21.90
2012,07,08,12,45,21.80
2012,07,08,12,46,21.90
2012,07,08,12,47,21.90
2012,07,08,12,48,21.90
2012,07,08,12,49,21.80
2012,07,08,12,50,21.80
2012,07,08,12,51,21.90
2012,07,08,12,52,21.90
2012,07,08,12,53,21.90
2012,07,08,12,54,21.90
2012,07,08,12,55,21.90
2012,07,08,12,56,21.90
2012,07,08,12,57,21.90
2012,07,08,12,58,21.80
2012,07,08,12,59,21.80
2012,07,08,13,00,21.80
2012,07,08,13,01,21.80
2012,07,08,13,02,21.90
2012,07,08,13,03,21.90
2012,07,08,13,04,22.00
2012,07,08,13,05,22.00
2012,07,08,13,06,22.10
2012,07,08,13,07,22.00
2012,07,08,13,08,22.00
2012,07,08,13,09,22.10
2012,07,08,13,10,22.10
2012,07,08,13,11,22.10
2012,07,08,13,12,22.20
2012,07,08,13,13,22.20
2012,07,08,13,14,22.20
2012,07,08,13,15,22.20
2012,07,08,13,16,22.30
2012,07,08,13,17,22.40
2012,07,08,13,18,22.50
2012,07,08,13,19,22.50
2012,07,08,13,20,22.60
2012,07,08,13,21,22.70
2012,07,08,13,22,22.70
2012,07,08,13,23,22.80
2012,07,08,13,24,22.80
2012,07,08,13,25,22.80
2012,07,08,13,26,22.90
2012,07,08,13,27,22.90
2012,07,08,13,28,22.90
2012,07,08,13,29,22.80
2012,07,08,13,30,22.80
2012,07,08,13,31,22.70
2012,07,08,13,32,22.60
2012,07,08,13,33,22.60
2012,07,08,13,34,22.70
2012,07,08,13,35,22.70
2012,07,08,13,36,22.70
2012,07,08,13,37,22.70
2012,07,08,13,38,22.70
2012,07,08,13,39,22.70
2012,07,08,13,40,22.80
2012,07,08,13,41,22.80
2012,07,08,13,42,22.70
2012,07,08,13,43,22.70
2012,07,08,13,44,22.80
2012,07,08,13,45,22.80
2012,07,08,13,46,22.80
2012,07,08,13,47,22.80
2012,07,08,13,48,22.90
2012,07,08,13,49,23.00
2012,07,08,13,50,23.10
2012,07,08,13,51,23.10
2012,07,08,13,52,23.10
2012,07,08,13,53,23.20
2012,07,08,13,54,23.20
2012,07,08,13,55,23.30
2012,07,08,13,56,23.40
2012,07,08,13,57,23.50
2012,07,08,13,58,23.60
2012,07,08,13,59,23.70
2012,07,08,14,00,23.70
2012,07,08,14,01,23.70
2012,07,08,14,02,23.70
2012,07,08,14,03,23.70
2012,07,08,14,04,23.70
2012,07,08,14,05,23.70
2012,07,08,14,06,23.80
2012,07,08,14,07,23.90
2012,07,08,14,08,23.90
2012,07,08,14,09,24.00
2012,07,08,14,10,24.10
2012,07,08,14,11,24.10
2012,07,08,14,12,24.10
2012,07,08,14,13,24.00
2012,07,08,14,14,23.90
2012,07,08,14,15,23.90
2012,07,08,14,16,23.80
2012,07,08,14,17,23.70
2012,07,08,14,18,23.60
2012,07,08,14,19,23.60
2012,07,08,14,20,23.60
2012,07,08,14,21,23.60
2012,07,08,14,22,23.60
2012,07,08,14,23,23.70
2012,07,08,14,24,23.80
2012,07,08,14,25,23.90
2012,07,08,14,26,24.00
2012,07,08,14,27,24.10
2012,07,08,14,28,24.30
2012,07,08,14,29,24.40
2012,07,08,14,30,24.50
2012,07,08,14,31,24.50
2012,07,08,14,32,24.40
2012,07,08,14,33,24.40
2012,07,08,14,34,24.40
2012,07,08,14,35,24.40
2012,07,08,14,36,24.40
2012,07,08,14,37,24.40
2012,07,08,14,38,24.40
2012,07,08,14,39,24.50
2012,07,08,14,40,24.50
2012,07,08,14,41,24.60
2012,07,08,14,42,24.60
2012,07,08,14,43,24.70
2012,07,08,14,44,24.80
2012,07,08,14,45,24.80
2012,07,08,14,46,24.90
2012,07,08,14,47,24.80
2012,07,08,14,48,24.80
2012,07,08,14,49,24.70
2012,07,08,14,50,24.70
2012,07,08,14,51,24.60
2012,07,08,14,52,24.70
2012,07,08,14,53,24.70
2012,07,08,14,54,24.80
2012,07,08,14,55,24.80
2012,07,08,14,56,24.90
2012,07,08,14,57,24.90
2012,07,08,14,58,25.00
2012,07,08,14,59,25.10
2012,07,08,15,00,25.10
2012,07,08,15,01,25.20
2012,07,08,15,02,25.20
2012,07,08,15,03,25.30
2012,07,08,15,04,25.30
2012,07,08,15,05,25.30
2012,07,08,15,06,25.30
2012,07,08,15,07,25.40
2012,07,08,15,08,25.40
2012,07,08,15,09,25.40
2012,07,08,15,10,25.40
2012,07,08,15,11,25.40
2012,07,08,15,12,25.50
2012,07,08,15,13,25.50
2012,07,08,15,14,25.40
2012,07,08,15,15,25.40
2012,07,08,15,16,25.40
2012,07,08,15,17,25.40
2012,07,08,15,18,25.40
2012,07,08,15,19,25.40
2012,07,08,15,20,25.40
2012,07,08,15,21,25.30
2012,07,08,15,22,25.30
2012,07,08,15,23,25.30
2012,07,08,15,24,25.30
2012,07,08,15,25,25.30
2012,07,08,15,26,25.40
2012,07,08,15,27,25.40
2012,07,08,15,28,25.40
2012,07,08,15,29,25.50
2012,07,08,15,30,25.50
2012,07,08,15,31,25.50
2012,07,08,15,32,25.40
2012,07,08,15,33,25.40
2012,07,08,15,34,25.30
2012,07,08,15,35,25.30
2012,07,08,15,36,25.30
2012,07,08,15,37,25.30
2012,07,08,15,38,25.30
2012,07,08,15,39,25.30
2012,07,08,15,40,25.30
2012,07,08,15,41,25.30
2012,07,08,15,42,25.30
2012,07,08,15,43,25.30
2012,07,08,15,44,25.20
2012,07,08,15,45,25.10
2012,07,08,15,46,25.10
2012,07,08,15,47,25.00
2012,07,08,15,48,25.00
2012,07,08,15,49,25.00
2012,07,08,15,50,25.00
2012,07,08,15,51,24.90
2012,07,08,15,52,24.90
2012,07,08,15,53,24.80
2012,07,08,15,54,24.70
2012,07,08,15,55,24.70
2012,07,08,15,56,24.70
2012,07,08,15,57,24.60
2012,07,08,15,58,24.50
2012,07,08,15,59,24.50
2012,07,08,16,00,24.40
2012,07,08,16,01,24.40
2012,07,08,16,02,24.40
2012,07,08,16,03,24.40
2012,07,08,16,04,24.40
2012,07,08,16,05,24.40
2012,07,08,16,06,24.40
2012,07,08,16,07,24.50
2012,07,08,16,08,24.50
2012,07,08,16,09,24.60
2012,07,08,16,10,24.60
2012,07,08,16,11,24.60
2012,07,08,16,12,24.60
2012,07,08,16,13,24.60
2012,07,08,16,14,24.60
2012,07,08,16,15,24.60
2012,07,08,16,16,24.50
2012,07,08,16,17,24.50
2012,07,08,16,18,24.50
2012,07,08,16,19,24.50
2012,07,08,16,20,24.50
2012,07,08,16,21,24.50
2012,07,08,16,22,24.50
2012,07,08,16,23,24.60
2012,07,08,16,24,24.60
2012,07,08,16,25,24.60
2012,07,08,16,26,24.60
2012,07,08,16,27,24.60
2012,07,08,16,28,24.60
2012,07,08,16,29,24.50
2012,07,08,16,30,24.50
2012,07,08,16,31,24.40
2012,07,08,16,32,24.40
2012,07,08,16,33,24.40
2012,07,08,16,34,24.30
2012,07,08,16,35,24.30
2012,07,08,16,36,24.40
2012,07,08,16,37,24.40
2012,07,08,16,38,24.40
2012,07,08,16,39,24.40
2012,07,08,16,40,24.40
2012,07,08,16,41,24.40
2012,07,08,16,42,24.40
2012,07,08,16,43,24.40
2012,07,08,16,44,24.40
2012,07,08,16,45,24.40
2012,07,08,16,46,24.40
2012,07,08,16,47,24.30
2012,07,08,16,48,24.30
2012,07,08,16,49,24.20
2012,07,08,16,50,24.20
2012,07,08,16,51,24.20
2012,07,08,16,52,24.20
2012,07,08,16,53,24.20
2012,07,08,16,54,24.30
2012,07,08,16,55,24.30
2012,07,08,16,56,24.40
2012,07,08,16,57,24.40
2012,07,08,16,58,24.40
2012,07,08,16,59,24.40
2012,07,08,17,00,24.50
2012,07,08,17,01,24.50
2012,07,08,17,02,24.60
2012,07,08,17,03,24.60
2012,07,08,17,04,24.50
2012,07,08,17,05,24.50
2012,07,08,17,06,24.40
2012,07,08,17,07,24.40
2012,07,08,17,08,24.30
2012,07,08,17,09,24.30
2012,07,08,17,10,24.30
2012,07,08,17,11,24.20
2012,07,08,17,12,24.20
2012,07,08,17,13,24.20
2012,07,08,17,14,24.20
2012,07,08,17,15,24.20
2012,07,08,17,16,24.20
2012,07,08,17,17,24.20
2012,07,08,17,18,24.20
2012,07,08,17,19,24.20